Wheeling, WV

2:21 PM EDT on October 22, 2017 (GMT -0400)
Wheeling-Ohio County

Weather History for KHLG - November, 2013

Change the Weather History Date:

Saturday, November 16, 2013

  Actual Average Record
Temperature  
Mean Temperature 50 °F 43 °F  
Max Temperature 59 °F 51 °F 69 °F (2005)
Min Temperature 41 °F 35 °F 26 °F (2012)
Degree Days  
Heating Degree Days 15 22  
Month to date heating degree days 336 309  
Since 1 July heating degree days 776 783  
Cooling Degree Days 0    
Month to date cooling degree days 0  
Year to date cooling degree days 740  
Moisture  
Dew Point 44 °F    
Average Humidity 75    
Maximum Humidity 89    
Minimum Humidity 61    
Precipitation  
Precipitation 0.00 in 0.11 in 1.20 in (1985)
Month to date precipitation 1.04 1.66  
Sea Level Pressure  
Sea Level Pressure 30.15 in    
Wind  
Wind Speed 7 mph (SSE)    
Max Wind Speed 14 mph    
Max Gust Speed 23 mph    
Visibility 10 miles    
Events      
T = Trace of Precipitation, MM = Missing Value Source: NWS Daily Summary

Daily Weather History Graph

Daily Weather History Graph

Search for Another Location

Airport or City:

Trip Planner

Search our weather history database for the weather conditions in past years. The results will help you decide how hot, cold, wet, or windy it might be!

Date:

Astronomy

Nov. 16, 2013 Rise Set
Actual Time 7:09 AM EST 5:04 PM EST
Civil Twilight 6:40 AM EST 5:34 PM EST
Nautical Twilight 6:07 AM EST 6:06 PM EST
Astronomical Twilight 5:35 AM EST 6:39 PM EST
Moon 4:39 PM EST (11/16) 6:04 AM EST (11/16)
Length of Visible Light 10h 53m
Length of Day
9h 55m
Waxing Gibbous, 99% of the Moon is Illuminated
Nov 16
Waxing Gibbous
Nov 17
Full
Nov 25
Last Quarter
Dec 2
New
Dec 9
First Quarter

Hourly Weather History & Observations

Time (EST) Temp. Windchill Dew Point Humidity Pressure Visibility Wind Dir Wind Speed Gust Speed Precip Events Conditions
12:53 AM 48.0 °F - 37.0 °F 66% 30.20 in 10.0 mi SSW 6.9 mph - N/A   Overcast
1:53 AM 46.9 °F - 37.9 °F 71% 30.19 in 10.0 mi South 5.8 mph - N/A   Overcast
2:53 AM 46.0 °F 43.9 °F 37.9 °F 73% 30.18 in 10.0 mi SSE 4.6 mph - N/A   Mostly Cloudy
3:53 AM 46.0 °F 42.5 °F 39.0 °F 76% 30.19 in 10.0 mi South 6.9 mph - N/A   Mostly Cloudy
4:53 AM 44.1 °F 40.8 °F 39.0 °F 82% 30.20 in 10.0 mi SE 5.8 mph - N/A   Partly Cloudy
5:53 AM 42.1 °F 37.7 °F 39.0 °F 89% 30.19 in 10.0 mi ESE 6.9 mph - N/A   Clear
6:53 AM 44.1 °F - 39.9 °F 85% 30.21 in 10.0 mi Calm Calm - N/A   Clear
7:53 AM 45.0 °F 42.6 °F 41.0 °F 86% 30.24 in 10.0 mi SSE 4.6 mph - N/A   Scattered Clouds
8:53 AM 46.9 °F - 42.1 °F 83% 30.23 in 10.0 mi SE 6.9 mph - N/A   Overcast
9:53 AM 51.1 °F - 44.1 °F 77% 30.22 in 10.0 mi SE 6.9 mph - N/A   Overcast
10:53 AM 53.1 °F - 44.1 °F 71% 30.24 in 10.0 mi South 6.9 mph - N/A   Overcast
11:53 AM 55.0 °F - 45.0 °F 69% 30.20 in 10.0 mi SE 6.9 mph - N/A   Overcast
12:53 PM 57.0 °F - 45.0 °F 64% 30.16 in 10.0 mi South 10.4 mph - N/A   Mostly Cloudy
1:49 PM 57.2 °F - 46.4 °F 67% 30.13 in 10.0 mi South 10.4 mph - N/A   Mostly Cloudy
1:53 PM 57.9 °F - 46.9 °F 67% 30.14 in 10.0 mi South 9.2 mph - N/A   Mostly Cloudy
2:53 PM 59.0 °F - 48.0 °F 67% 30.13 in 10.0 mi SSW 6.9 mph 17.3 mph N/A   Mostly Cloudy
3:40 PM 57.2 °F - 48.2 °F 72% 30.10 in 10.0 mi South 8.1 mph - N/A   Scattered Clouds
3:53 PM 57.9 °F - 48.9 °F 72% 30.12 in 10.0 mi South 4.6 mph - N/A   Clear
4:53 PM 57.0 °F - 48.0 °F 72% 30.12 in 10.0 mi South 5.8 mph - N/A   Clear
5:53 PM 57.0 °F - 48.0 °F 72% 30.12 in 10.0 mi SE 6.9 mph - N/A   Partly Cloudy
6:53 PM 55.9 °F - 48.0 °F 75% 30.09 in 10.0 mi SE 10.4 mph - N/A   Clear
7:53 PM 55.9 °F - 48.0 °F 75% 30.09 in 10.0 mi SSE 6.9 mph - N/A   Clear
8:53 PM 57.0 °F - 48.9 °F 74% 30.07 in 10.0 mi SSE 10.4 mph - N/A   Clear
9:53 PM 57.0 °F - 48.9 °F 74% 30.05 in 10.0 mi South 8.1 mph - N/A   Clear
10:53 PM 57.0 °F - 48.0 °F 72% 30.02 in 10.0 mi SSE 10.4 mph - N/A   Clear
11:53 PM 57.0 °F - 48.0 °F 72% 30.01 in 10.0 mi SSE 13.8 mph - N/A   Clear